Gainesville, GA

4:11 AM EDT on June 22, 2018 (GMT -0400)
Gilmer Memorial

Weather History for KGVL - November, 2017

Change the Weather History Date:

Tuesday, November 21, 2017

  Actual Average Record
Temperature  
Mean Temperature 55 °F 51 °F  
Max Temperature 65 °F 60 °F 77 °F (1979)
Min Temperature 44 °F 42 °F 15 °F (1937)
Degree Days  
Heating Degree Days 10 14  
Month to date heating degree days 202 234  
Since 1 July heating degree days 348 392  
Growing Degree Days 4 (Base 50)    
Moisture  
Dew Point 41 °F    
Average Humidity 70    
Maximum Humidity 89    
Minimum Humidity 50    
Precipitation  
Precipitation 0.00 in 0.16 in 1.38 in (2005)
Month to date precipitation 0.72 2.71  
Year to date precipitation 47.21 47.72  
Snow  
Snow 0.00 in - - ()
Month to date snowfall 0.0  
Since 1 July snowfall 0.0  
Since 1 September snowfall 0.0  
Snow Depth 0.00 in    
Sea Level Pressure  
Sea Level Pressure 30.11 in    
Wind  
Wind Speed 6 mph (East)    
Max Wind Speed 13 mph    
Max Gust Speed 16 mph    
Visibility 10 miles    
Events      
T = Trace of Precipitation, MM = Missing Value Source: NWS Daily Summary

Daily Weather History Graph

Daily Weather History Graph

Search for Another Location

Airport or City:

Astronomy

Nov. 21, 2017 Rise Set
Actual Time 7:14 AM EST 5:27 PM EST
Civil Twilight 6:47 AM EST 5:54 PM EST
Nautical Twilight 6:16 AM EST 6:25 PM EST
Astronomical Twilight 5:46 AM EST 6:55 PM EST
Moon 9:45 AM EST (11/21) 8:10 PM EST (11/21)
Length of Visible Light 11h 07m
Length of Day
10h 13m
Waxing Crescent, 9% of the Moon is Illuminated
Nov 21
Waxing Crescent
Nov 26
First Quarter
Dec 3
Full
Dec 10
Last Quarter
Dec 18
New

Hourly Weather History & Observations

Time (EST) Temp. Windchill Dew Point Humidity Pressure Visibility Wind Dir Wind Speed Gust Speed Precip Events Conditions
12:53 AM 46.0 °F 43.1 °F 30.0 °F 54% 30.20 in 10.0 mi East 5.8 mph - N/A   Overcast
1:53 AM 46.0 °F 42.5 °F 30.9 °F 56% 30.19 in 10.0 mi East 6.9 mph - N/A   Overcast
2:53 AM 45.0 °F 41.2 °F 30.9 °F 58% 30.18 in 10.0 mi East 6.9 mph - N/A   Overcast
3:11 AM 46.0 °F 42.5 °F 32.0 °F 58% 30.18 in 10.0 mi East 6.9 mph - N/A   Overcast
3:53 AM 46.9 °F - 32.0 °F 56% 30.16 in 10.0 mi East 6.9 mph - N/A   Overcast
4:53 AM 46.0 °F 42.5 °F 32.0 °F 58% 30.16 in 10.0 mi East 6.9 mph - N/A   Mostly Cloudy
5:06 AM 46.0 °F 43.1 °F 33.1 °F 61% 30.16 in 10.0 mi East 5.8 mph - N/A   Mostly Cloudy
5:53 AM 46.9 °F - 32.0 °F 56% 30.16 in 10.0 mi ENE 4.6 mph - N/A   Mostly Cloudy
6:53 AM 45.0 °F 41.8 °F 33.1 °F 63% 30.16 in 10.0 mi ENE 5.8 mph - N/A   Mostly Cloudy
7:53 AM 46.0 °F 41.4 °F 33.1 °F 61% 30.16 in 10.0 mi East 9.2 mph - N/A   Partly Cloudy
8:53 AM 48.9 °F - 32.0 °F 52% 30.17 in 10.0 mi East 10.4 mph - N/A   Scattered Clouds
9:53 AM 53.1 °F - 35.1 °F 50% 30.16 in 10.0 mi East 10.4 mph - N/A   Scattered Clouds
10:53 AM 55.0 °F - 42.1 °F 62% 30.15 in 10.0 mi ESE 9.2 mph - N/A   Partly Cloudy
11:53 AM 57.9 °F - 43.0 °F 58% 30.12 in 10.0 mi SE 8.1 mph - N/A   Scattered Clouds
12:53 PM 60.1 °F - 46.0 °F 60% 30.09 in 10.0 mi SSE 6.9 mph - N/A   Partly Cloudy
1:53 PM 62.1 °F - 46.9 °F 58% 30.06 in 10.0 mi South 4.6 mph - N/A   Partly Cloudy
2:53 PM 63.0 °F - 46.9 °F 56% 30.05 in 10.0 mi SE 5.8 mph - N/A   Scattered Clouds
3:53 PM 63.0 °F - 48.9 °F 60% 30.03 in 10.0 mi ESE 8.1 mph - N/A   Scattered Clouds
4:53 PM 62.1 °F - 50.0 °F 65% 30.02 in 10.0 mi SE 3.5 mph - N/A   Overcast
5:53 PM 59.0 °F - 51.1 °F 75% 30.02 in 10.0 mi SE 5.8 mph - N/A   Mostly Cloudy
6:53 PM 57.9 °F - 51.1 °F 78% 30.04 in 10.0 mi East 3.5 mph - N/A   Mostly Cloudy
7:53 PM 57.0 °F - 51.1 °F 81% 30.04 in 10.0 mi ESE 5.8 mph - N/A   Mostly Cloudy
8:53 PM 55.9 °F - 51.1 °F 84% 30.05 in 10.0 mi East 3.5 mph - N/A   Overcast
9:53 PM 53.1 °F - 50.0 °F 89% 30.04 in 10.0 mi East 4.6 mph - N/A   Scattered Clouds
10:43 PM 54.0 °F - 50.0 °F 86% 30.05 in 10.0 mi Calm Calm - N/A   Mostly Cloudy
10:53 PM 53.1 °F - 50.0 °F 89% 30.04 in 10.0 mi Calm Calm - N/A   Overcast
11:53 PM 53.1 °F - 48.9 °F 86% 30.03 in 10.0 mi NNE 3.5 mph - N/A   Mostly Cloudy